Regional Weather Roundup
Issued by NWS

Home | Current Version | Previous Version | Graphics & Text | Print | Product List | Glossary On
Versions: 1 2 3 4 5 6 7 8 9 10 11 12 13 14 15 16 17 18 19 20 21 22 23 24 25 26 27 28 29 30 31 32 33 34 35 36 37 38 39 40 41 42 43 44 45 46 47 48 49 50
000
ASUS43 KIND 262259
RWRIN

WEATHER ROUNDUP FOR INDIANA
NATIONAL WEATHER SERVICE INDIANAPOLIS IN
700 PM EDT SUN MAR 26 2017

NOTE: "FAIR" INDICATES FEW OR NO CLOUDS BELOW 12,000 FEET WITH NO
SIGNIFICANT WEATHER AND/OR OBSTRUCTIONS TO VISIBILITY.

* - STATION DOES NOT REPORT WEATHER SUCH AS PRECIPITATION OR FOG.

+ - STATION NOT QUALITY CONTROLLED BY THE NATIONAL WEATHER SERVICE.
    USE DATA WITH CAUTION...ESPECIALLY DEWPOINT AND RELATIVE
    HUMIDITY OBSERVATIONS.

INZ001>003-010>013-019-020-270000-
NORTHWEST INDIANA

CITY           SKY/WX    TMP DP  RH WIND       PRES   REMARKS
MONTICELLO +   DRIZZLE   57  53  84 SW13G18   29.85R

$$

LMZ046-743>745-270000-
SOUTHERN LAKE MICHIGAN

STATION/POSITION TIME  TEMP    WIND        PRES    WAVE
                       AIR SEA DIR/SP/G            HT
                 (UTC) (F)     (DEG/KT/KT) (MB)    (FT)
BURNS HARBOR     2224   56     260/ 12/ 16 1010.5R
MICHIGAN CITY    2230   53      10/  3/  4   N/A

$$

INZ004-005-014>016-021>024-270000-
NORTH CENTRAL INDIANA

CITY           SKY/WX    TMP DP  RH WIND       PRES   REMARKS
GOSHEN         MOSUNNY   59  53  80 SW5       29.84S
SOUTH BEND     RAIN      55  55 100 S7        29.85R FOG

$$

INZ006>009-017-018-025>027-270000-
NORTHEAST INDIANA

CITY           SKY/WX    TMP DP  RH WIND       PRES   REMARKS
ANGOLA *+      PTSUNNY   55  54  94 S5        29.85S
FORT WAYNE     LGT RAIN  56  53  90 S12       29.87S
KENDALLVILLE + RAIN      55  54  97 S6        29.85S

$$

INZ028-029-035-036-043>045-051>053-270000-
WEST CENTRAL INDIANA

CITY           SKY/WX    TMP DP  RH WIND       PRES   REMARKS
CRAWFORDSVL +  CLOUDY    56  51  85 SW10G17   29.88R
LAFAYETTE      CLOUDY    60  51  72 SW13G20   29.86R
TERRE HAUTE    CLOUDY    59  48  67 SW12      29.90R

$$

INZ030>032-037>040-046>048-054>057-064-065-270000-
CENTRAL INDIANA

CITY           SKY/WX    TMP DP  RH WIND       PRES   REMARKS
CP ATTERBURY + PTSUNNY   61  52  72 SW8G18    29.90R
COLUMBUS       CLOUDY    59  57  94 S9        29.89S
INDIANAPOLIS   MOSUNNY   60  52  74 SW15      29.87R
-EAGLE CREEK   CLOUDY    61  51  70 VRB7      29.86R
KOKOMO +       CLOUDY    59  54  83 S7        29.87R
SHELBYVILLE    CLOUDY    61  53  75 SW12      29.88R

$$

INZ033-034-041-042-049-050-058-059-270000-
EAST CENTRAL INDIANA

CITY           SKY/WX    TMP DP  RH WIND       PRES   REMARKS
MUNCIE         CLOUDY    58  53  84 S6        29.88R
RICHMOND +     DRIZZLE   55  54  94 SW6       29.91S

$$

INZ060-061-067>069-081>083-085>088-270000-
SOUTHWEST INDIANA

CITY           SKY/WX    TMP DP  RH WIND       PRES   REMARKS
EVANSVILLE     SUNNY     65  47  52 W15       29.93R
HUNTINGBURG *+ SUNNY     63  49  60 SW16G23   29.93R

$$

INZ062-063-066-070>080-084-089>092-270000-
SOUTH CENTRAL AND SOUTHEAST INDIANA

CITY           SKY/WX    TMP DP  RH WIND       PRES   REMARKS
BLOOMINGTON    PTSUNNY   60  48  64 SW13G23   29.90R
MADISON *+     CLOUDY    57  55  94 CALM      29.94R
SEYMOUR +      CLOUDY    61  57  88 S5        29.90R

$$




USA.gov is the U.S. government's official web portal to all federal, state and local government web resources and services.